Regional Weather Roundup
Issued by NWS

Home | Current Version | Previous Version | Text Only | Print | Product List | Glossary Off
Versions: 1 2 3 4 5 6 7 8 9 10 11 12 13 14 15 16 17 18 19 20 21 22 23 24 25 26 27

000
ASUS45 KPSR 041210
RWRAZ

ARIZONA HOURLY REGIONAL WEATHER ROUNDUP
NATIONAL WEATHER SERVICE PHOENIX AZ
500 AM MST SUN DEC 04 2016

NOTE: FAIR INDICATES FEW OR NO CLOUDS BELOW 12,000 FEET WITH NO
SIGNIFICANT WEATHER AND/OR OBSTRUCTIONS TO VISIBILITY.

AZZ001>003-036-041300-
NORTHWEST ARIZONA

CITY           SKY/WX    TMP DP  RH WIND       PRES   REMARKS
BULLHEAD CITY  CLEAR     54  18  24 N22       30.12F
KINGMAN        CLEAR     35  10  35 E12       30.15S WCI  27
6HR MIN TEMP:  30; 6HR MAX TEMP:  41;

$$

AZZ004>008-015-016-018-041300-
NORTH CENTRAL ARIZONA

CITY           SKY/WX    TMP DP  RH WIND       PRES   REMARKS
GRAND CANYON   PTCLDY    11   7  84 E3        30.16F
6HR MIN TEMP:  10; 6HR MAX TEMP:  15;

PRESCOTT       CLEAR     23  15  71 S6        30.13F WCI  16
6HR MIN TEMP:  23; 6HR MAX TEMP:  32;

FLAGSTAFF      CLEAR     26   6  42 VRB5      30.15R WCI  20
6HR MIN TEMP:  26; 6HR MAX TEMP:  31;

PAYSON         CLEAR     37   7  28 CALM      30.12S
PAGE           PTCLDY    29  10  45 CALM      30.18F
6HR MIN TEMP:  29; 6HR MAX TEMP:  33;

$$

AZZ009>014-017-041300-
NORTHEAST ARIZONA

CITY           SKY/WX    TMP DP  RH WIND       PRES   REMARKS
WINSLOW        PTCLDY    18   8  65 VRB3      30.21S
6HR MIN TEMP:  16; 6HR MAX TEMP:  29;

SAINT JOHNS    CLEAR     18  14  84 SE3       30.16S
6HR MIN TEMP:  17; 6HR MAX TEMP:  25;

WINDOW ROCK    CLEAR     16   9  74 W5        30.15F WCI   9
6HR MIN TEMP:  13; 6HR MAX TEMP:  23;

SHOW LOW       LGT RAIN  16  10  79 N3        30.16R
$$

AZZ023-041300-
GREATER PHOENIX AREA

CITY           SKY/WX    TMP DP  RH WIND       PRES   REMARKS
PHOENIX        CLEAR     46  29  51 CALM      30.03S
6HR MIN TEMP:  43; 6HR MAX TEMP:  54;

BUCKEYE        CLEAR     45  18  33 N6        30.06S
LUKE AFB       CLEAR     42  25  51 N10       30.04R
6HR MIN TEMP:  42; 6HR MAX TEMP:  54;

DEER VALLEY    CLEAR     48  15  26 VRB3      30.04S
6HR MIN TEMP:  46; 6HR MAX TEMP:  55;

SCOTTSDALE     CLEAR     45  25  45 CALM      30.05S
6HR MIN TEMP:  42; 6HR MAX TEMP:  57;

MESA-GATEWAY   CLEAR     45  23  42 CALM      30.04S
$$

AZZ027-028-041300-
SOUTHWEST MARICOPA COUNTY AND PINAL COUNTY

CITY           SKY/WX    TMP DP  RH WIND       PRES   REMARKS
CASA GRANDE    NOT AVBL
$$

AZZ503-504-507>509-041300-
SOUTHEAST ARIZONA

CITY           SKY/WX    TMP DP  RH WIND       PRES   REMARKS
TUCSON         CLEAR     37  24  59 SE6       30.04S WCI  32
6HR MIN TEMP:  37; 6HR MAX TEMP:  49;

DAVIS-MONTHAN  CLEAR     35  26  67 SE6       30.03S WCI  30
6HR MIN TEMP:  35; 6HR MAX TEMP:  43;

NOGALES        CLEAR     33  27  78 CALM      30.01S
6HR MIN TEMP:  32; 6HR MAX TEMP:  41;

SIERRA VISTA   CLEAR     35  29  78 S3        30.04F
6HR MIN TEMP:  34; 6HR MAX TEMP:  42;

DOUGLAS        CLEAR     30  30 100 NW7       30.03S WCI  23
6HR MIN TEMP:  30; 6HR MAX TEMP:  43;

SAFFORD        CLEAR     32  30  92 N8        30.03F WCI  25
6HR MIN TEMP:  31; 6HR MAX TEMP:  40; 6HR PCP: TRACE;

$$

AZZ020-021-025-026-031-041300-
SOUTHWEST ARIZONA

CITY           SKY/WX    TMP DP  RH WIND       PRES   REMARKS
YUMA           CLEAR     56  11  16 N13       30.04S
6HR MIN TEMP:  52; 6HR MAX TEMP:  57;

$$

CAZ031-033-041-043-047-048-061-041300-
SOUTHERN CALIFORNIA

CITY           SKY/WX    TMP DP  RH WIND       PRES   REMARKS
DOWNTOWN L.A.  CLEAR     46  33  60 CALM      30.05S
6HR MIN TEMP:  46; 6HR MAX TEMP:  52;

L.A. AIRPORT   CLEAR     48  30  49 E6        30.05F
6HR MIN TEMP:  47; 6HR MAX TEMP:  55;

SAN DIEGO      CLEAR     48  31  51 N3        30.08S
6HR MIN TEMP:  48; 6HR MAX TEMP:  54;

BURBANK        CLEAR     44  25  47 CALM      30.04F
6HR MIN TEMP:  44; 6HR MAX TEMP:  52;

ONTARIO        PTCLDY    46  24  42 N6        30.06S
6HR MIN TEMP:  41; 6HR MAX TEMP:  60;

RIVERSIDE      CLEAR     51  24  34 NE9       30.06S
6HR MIN TEMP:  48; 6HR MAX TEMP:  56;

PALM SPRINGS   CLEAR     51  22  31 N7        30.07F
6HR MIN TEMP:  51; 6HR MAX TEMP:  64;

EL CENTRO NAS  CLEAR     45   9  23 W12       30.07F
6HR MIN TEMP:  42; 6HR MAX TEMP:  49;

IMPERIAL       CLEAR     45  18  34 SW5       30.05F
6HR MIN TEMP:  43; 6HR MAX TEMP:  51;

BLYTHE         CLEAR     50  12  21 NW3       30.09F
6HR MIN TEMP:  48; 6HR MAX TEMP:  59;

NEEDLES        CLEAR     54  14  20 N10       30.11F
6HR MIN TEMP:  49; 6HR MAX TEMP:  58;

$$

NVZ020-UTZ003-041300-
SOUTHERN NEVADA-UTAH

CITY           SKY/WX    TMP DP  RH WIND       PRES   REMARKS
LAS VEGAS      CLEAR     39  12  33 CALM      30.17F
6HR MIN TEMP:  39; 6HR MAX TEMP:  48;

SALT LAKE CITY PTCLDY    28  20  71 SE10      30.20S WCI  19
6HR MIN TEMP:  28; 6HR MAX TEMP:  32;

$$

NMZ009-TXZ055-041300-
NEW MEXICO-WEST TEXAS

CITY           SKY/WX    TMP DP  RH WIND       PRES   REMARKS
ALBUQUERQUE    CLOUDY    30  13  49 N8        30.12S WCI  22
6HR MIN TEMP:  28; 6HR MAX TEMP:  35;

EL PASO        PTCLDY    39  36  89 NE3       30.02R
6HR MIN TEMP:  37; 6HR MAX TEMP:  46;

$$


........................KEY........................
SKY/WX - SKY CONDITION/WEATHER
TMP    - TEMPERATURE IN FAHRENHEIT
DP     - DEW POINT IN FAHRENHEIT
RH     - RELATIVE HUMIDITY IN PERCENT
WIND   - DIRECTION AND SPEED IN MILES PER HOUR (MPH)
VRB    - VARIABLE WIND DIRECTION
PRES   - MEAN SEA LEVEL PRESSURE IN INCHES OF MERCURY
         F - FALLING PRESSURE   R - RISING PRESSURE
         S - STEADY PRESSURE
VSB    - VISIBILITY IN MILES
HX     - HEAT INDEX IN FAHRENHEIT
WCI    - WIND CHILL INDEX IN FAHRENHEIT
TC     - TEMPERATURE IN CELSIUS WHICH IS ALSO KNOWN AS
         TEMPERATURE IN CENTIGRADE
AFB    - AIR FORCE BASE
         LUKE AFB IS LUKE AIR FORCE BASE
         DAVIS-MONTHAN IS DAVIS-MONTHAN AIR FORCE BASE
NAS    - NAVAL AIR STATION
         EL CENTRO NAS IS EL CENTRO NAVAL AIR STATION
N/A    - NOT AVAILABLE





USA.gov is the U.S. government's official web portal to all federal, state and local government web resources and services.